Greenville, ME

4:28 PM EDT on June 24, 2017 (GMT -0400)
Greenville

Weather History for KGNR - February, 2013

Change the Weather History Date:

Saturday, February 2, 2013

  Actual Average (KMLT) Record (KMLT)
Temperature  
Mean Temperature 6 °F -  
Max Temperature 14 °F 26 °F 54 °F (1976)
Min Temperature -2 °F 4 °F -42 °F (1962)
Degree Days  
Heating Degree Days 59    
Moisture  
Dew Point -4 °F    
Average Humidity 62    
Maximum Humidity 77    
Minimum Humidity 45    
Precipitation  
Precipitation 0.00 in - - ()
Sea Level Pressure  
Sea Level Pressure 30.04 in    
Wind  
Wind Speed 7 mph (WNW)    
Max Wind Speed 14 mph    
Max Gust Speed 28 mph    
Averages and records for this station are not official NWS values.
T = Trace of Precipitation, MM = Missing Value Source: NWS Daily Summary

Daily Weather History Graph

Daily Weather History Graph

Search for Another Location

Airport or City:

Trip Planner

Search our weather history database for the weather conditions in past years. The results will help you decide how hot, cold, wet, or windy it might be!

Date:

Astronomy

Feb. 02, 2013 Rise Set
Actual Time 6:57 AM EST 4:46 PM EST
Civil Twilight 6:26 AM EST 5:18 PM EST
Nautical Twilight 5:50 AM EST 5:53 PM EST
Astronomical Twilight 5:16 AM EST 6:28 PM EST
Moon No Moon Rise 9:43 AM EST (2/2)
Length of Visible Light 10h 52m
Length of Day
9h 49m
Waning Gibbous, 60% of the Moon is Illuminated
Feb 2
Waning Gibbous
Feb 3
Last Quarter
Feb 10
New
Feb 17
First Quarter
Feb 25
Full

Hourly Weather History & Observations

Time (EST) Temp. Windchill Dew Point Humidity Pressure Visibility Wind Dir Wind Speed Gust Speed Precip Events Conditions
12:56 AM 3.0 °F -11.5 °F -6.0 °F 66% 29.94 in - WNW 9.2 mph 23.0 mph N/A   Unknown
1:56 AM 1.9 °F -13.8 °F -7.1 °F 66% 29.97 in - NW 10.4 mph 27.6 mph N/A   Unknown
2:56 AM 1.0 °F -17.3 °F -8.0 °F 66% 29.99 in - NW 13.8 mph 25.3 mph N/A   Unknown
3:56 AM 1.0 °F -14.0 °F -9.9 °F 60% 30.00 in - WNW 9.2 mph 25.3 mph N/A   Unknown
4:56 AM -0.0 °F -16.3 °F -9.9 °F 63% 30.04 in - NW 10.4 mph 19.6 mph N/A   Unknown
5:56 AM -0.9 °F -17.4 °F -9.9 °F 66% 30.05 in - NW 10.4 mph 23.0 mph N/A   Unknown
6:56 AM -2.0 °F -16.6 °F -9.9 °F 69% 30.07 in - NW 8.1 mph 18.4 mph N/A   Unknown
7:56 AM -0.9 °F -16.4 °F -9.9 °F 66% 30.10 in - NNW 9.2 mph - N/A   Unknown
8:56 AM 1.0 °F -6.7 °F -9.0 °F 63% 30.11 in - NNW 3.5 mph - N/A   Unknown
9:56 AM 3.0 °F -6.4 °F -8.0 °F 60% 30.11 in - NW 4.6 mph - N/A   Unknown
10:56 AM 5.0 °F - -7.1 °F 58% 30.10 in - Calm Calm - N/A   Unknown
11:56 AM 10.0 °F 3.6 °F -7.1 °F 46% 30.07 in - Variable 3.5 mph - N/A   Unknown
12:56 PM 12.0 °F - -5.1 °F 46% 30.05 in - Calm Calm - N/A   Unknown
1:56 PM 12.9 °F 6.9 °F -5.1 °F 45% 30.04 in - Variable 3.5 mph - N/A   Unknown
2:56 PM 14.0 °F - -4.0 °F 45% 30.04 in - Calm Calm - N/A   Unknown
3:56 PM 14.0 °F - -2.0 °F 49% 30.04 in - Calm Calm - N/A   Unknown
4:56 PM 12.9 °F 5.2 °F 1.9 °F 62% 30.04 in - South 4.6 mph - N/A   Unknown
5:56 PM 12.0 °F - 6.1 °F 77% 30.05 in - Calm Calm - N/A   Unknown
6:56 PM 12.9 °F - 3.9 °F 67% 30.05 in - Calm Calm - N/A   Unknown
7:56 PM 12.9 °F 6.9 °F 3.0 °F 65% 30.05 in - South 3.5 mph - N/A   Unknown
8:56 PM 12.0 °F - 3.9 °F 70% 30.04 in - Calm Calm - N/A   Unknown
9:56 PM 10.9 °F - 3.9 °F 73% 30.04 in - Calm Calm - N/A   Unknown
10:56 PM 10.9 °F 4.7 °F 3.9 °F 73% 30.03 in - South 3.5 mph - N/A   Unknown
11:56 PM 10.9 °F - 3.9 °F 73% 30.02 in - Calm Calm - N/A   Unknown